Weather History for Tri-Cities, TN

Change the Weather History Date:

Saturday, October 18, 2014

  Actual Average Record
Temperature  
Mean Temperature 58 °F 56 °F  
Max Temperature 65 °F 69 °F 85 °F (1938)
Min Temperature 50 °F 43 °F 25 °F (1943)
Degree Days  
Heating Degree Days 7 10  
Month to date heating degree days 87 131  
Since 1 July heating degree days 98 184  
Cooling Degree Days 0 0  
Month to date cooling degree days 9 9  
Year to date cooling degree days 1141 977  
Growing Degree Days 6 (Base 50)    
Moisture  
Dew Point 47 °F    
Average Humidity 74    
Maximum Humidity 100    
Minimum Humidity 48    
Precipitation  
Precipitation T in 0.06 in 2.22 in (1990)
Month to date precipitation 5.68 1.18  
Year to date precipitation 32.14 33.62  
Snow  
Snow 0.00 in 0.00 in - ()
Month to date snowfall 0.0 0.0  
Since 1 July snowfall 0.0 0.0  
Since 1 September snowfall 0.0 0.0  
Snow Depth 0.00 in    
Sea Level Pressure  
Sea Level Pressure 29.91 in    
Wind  
Wind Speed 9 mph (West)    
Max Wind Speed 18 mph    
Max Gust Speed 27 mph    
Visibility 10 miles    
Events Rain    
T = Trace of Precipitation, MM = Missing Value Source: NWS Daily Summary

Daily Weather History Graph

Daily Weather History Graph

Search for Another Location

Airport:

Trip Planner

Search our weather history database for the weather conditions in past years. The results will help you decide how hot, cold, wet, or windy it might be!

Date:

Astronomy

Oct. 18, 2014 Rise Set
Actual Time 7:39 AM EDT 6:49 PM EDT
Civil Twilight 7:13 AM EDT 7:15 PM EDT
Nautical Twilight 6:43 AM EDT 7:45 PM EDT
Astronomical Twilight 6:13 AM EDT 8:15 PM EDT
Moon 2:44 AM EDT (10/18) 4:01 PM EDT (10/18)
Length of Visible Light 12h 02m
Length of Day
11h 09m
Waning Crescent, 24% of the Moon is Illuminated
Oct 18
Waning Crescent
Oct 23
New
Oct 30
First Quarter
Nov 6
Full
Nov 14
Last Quarter

Hourly Weather History & Observations

Time (EDT) Temp. Dew Point Humidity Pressure Visibility Wind Dir Wind Speed Gust Speed Precip Events Conditions
12:53 AM 59.0 °F 54.0 °F 83% 29.80 in 10.0 mi SW 6.9 mph - N/A   Clear
1:53 AM 57.9 °F 54.0 °F 87% 29.80 in 10.0 mi SW 5.8 mph - N/A   Clear
2:53 AM 57.0 °F 54.0 °F 89% 29.80 in 10.0 mi WSW 4.6 mph - N/A   Clear
3:53 AM 54.0 °F 53.1 °F 97% 29.79 in 10.0 mi SW 5.8 mph - N/A   Clear
4:53 AM 54.0 °F 52.0 °F 93% 29.79 in 10.0 mi WSW 3.5 mph - N/A   Clear
5:53 AM 52.0 °F 51.1 °F 97% 29.81 in 10.0 mi SW 6.9 mph - N/A   Clear
6:53 AM 55.9 °F 50.0 °F 80% 29.83 in 10.0 mi WSW 9.2 mph - N/A   Partly Cloudy
7:53 AM 53.1 °F 48.0 °F 83% 29.86 in 10.0 mi West 5.8 mph - N/A   Mostly Cloudy
8:53 AM 55.0 °F 48.0 °F 77% 29.87 in 10.0 mi West 9.2 mph - N/A   Mostly Cloudy
9:53 AM 57.9 °F 48.0 °F 70% 29.88 in 10.0 mi WSW 11.5 mph - N/A   Scattered Clouds
10:53 AM 57.9 °F 46.0 °F 65% 29.90 in 10.0 mi West 10.4 mph - N/A   Overcast
11:53 AM 59.0 °F 45.0 °F 60% 29.89 in 10.0 mi West 12.7 mph - N/A   Overcast
12:53 PM 62.1 °F 46.0 °F 56% 29.89 in 10.0 mi West 11.5 mph 21.9 mph N/A   Mostly Cloudy
1:53 PM 63.0 °F 45.0 °F 52% 29.87 in 10.0 mi WSW 15.0 mph - N/A   Mostly Cloudy
2:53 PM 63.0 °F 43.0 °F 48% 29.87 in 10.0 mi WNW 13.8 mph - N/A   Mostly Cloudy
3:53 PM 61.0 °F 43.0 °F 52% 29.88 in 10.0 mi West 11.5 mph - N/A   Overcast
4:53 PM 59.0 °F 43.0 °F 55% 29.90 in 10.0 mi WNW 12.7 mph 21.9 mph N/A   Overcast
5:53 PM 57.9 °F 43.0 °F 58% 29.92 in 10.0 mi WNW 8.1 mph - N/A   Overcast
6:53 PM 55.9 °F 44.1 °F 64% 29.94 in 10.0 mi WNW 12.7 mph - N/A   Overcast
7:53 PM 52.0 °F 46.9 °F 83% 29.99 in 8.0 mi NW 12.7 mph - 0.00 in Rain Light Rain
8:07 PM 52.0 °F 46.9 °F 83% 30.02 in 10.0 mi WNW 10.4 mph - 0.00 in Rain Light Rain
8:48 PM 51.8 °F 46.4 °F 82% 30.03 in 10.0 mi WNW 9.2 mph - 0.00 in   Overcast
8:53 PM 52.0 °F 46.9 °F 83% 29.99 in 10.0 mi WNW 9.2 mph - 0.00 in   Overcast
9:28 PM 51.1 °F 45.0 °F 80% 30.05 in 10.0 mi NNW 11.5 mph - 0.00 in   Overcast
9:53 PM 51.1 °F 44.1 °F 77% 30.01 in 10.0 mi NW 9.2 mph - 0.00 in   Mostly Cloudy
10:53 PM 50.0 °F 42.1 °F 74% 30.03 in 10.0 mi West 6.9 mph - N/A   Overcast
11:53 PM 50.0 °F 43.0 °F 77% 30.04 in 10.0 mi SW 3.5 mph - N/A   Overcast